This is the latest recevied weather packets stored in our database for station/object DG7AA-13. If no packets are shown the sender has not sent any weather packets the latest 10 day(s).
| Time | Temp. | Humidity | Pressure | Rain* | Wind** | Luminosity | Snow |
|---|---|---|---|---|---|---|---|
| 1777745731 | 21.11° C | 51% | - | 0 mm | - | - | - |
| 1777745126 | 22.22° C | 50% | - | 0 mm | - | - | - |
| 1777744523 | 22.78° C | 45% | - | 0 mm | - | - | - |
| 1777743923 | 23.89° C | 41% | - | 0 mm | - | - | - |
| 1777743322 | 24.44° C | 36% | - | 0 mm | - | - | - |
| 1777742724 | 24.44° C | 34% | - | 0 mm | - | - | - |
| 1777742131 | 24.44° C | 34% | - | 0 mm | - | - | - |
| 1777741523 | 24.44° C | 34% | - | 0 mm | - | - | - |
| 1777740934 | 25° C | 32% | - | 0 mm | - | - | - |
| 1777740324 | 25° C | 31% | - | 0 mm | - | - | - |
| 1777739731 | 25° C | 30% | - | 0 mm | - | - | - |
| 1777739126 | 25.56° C | 30% | - | 0 mm | - | - | - |
| 1777738532 | 25.56° C | 29% | - | 0 mm | - | - | - |
| 1777737920 | 26.11° C | 29% | - | 0 mm | - | - | - |
| 1777737324 | 26.11° C | 28% | - | 0 mm | - | - | - |
| 1777736723 | 26.67° C | 30% | - | 0 mm | - | - | - |
| 1777736135 | 26.67° C | 26% | - | 0 mm | - | - | - |
| 1777735524 | 26.67° C | 25% | - | 0 mm | - | - | - |
| 1777734927 | 26.67° C | 27% | - | 0 mm | - | - | - |
| 1777734323 | 26.67° C | 26% | - | 0 mm | - | - | - |
| 1777733731 | 27.22° C | 25% | - | 0 mm | - | - | - |
| 1777733124 | 27.22° C | 24% | - | 0 mm | - | - | - |
| 1777732532 | 27.78° C | 24% | - | 0 mm | - | - | - |
| 1777731923 | 27.22° C | 27% | - | 0 mm | - | - | - |
| 1777731325 | 27.22° C | 27% | - | 0 mm | - | - | - |
* Rain latest hour (hover to see other rain measurements)
** Current wind speed in m/s (hover to see current wind gust speed)